Location: Voyageurs National Park
(48.5020°N, 92.9292°W)
Time: 16:05:06
(UTC-05:00)

Cosmos 2181 Rocket - Pass Details

Date: 19 January 2018
Orbit: 952 x 1014 km, 82.9° (Epoch: 23 May)

Event Time Altitude Azimuth Distance (km) Brightness Sun altitude
Rises 04:48:37 0° 352° (N) 3,722 7.0 -30.5°
Reaches altitude 10° 04:51:12 10° 355° (N) 2,760 6.3 -30.0°
Maximum altitude 04:57:30 66° 78° (ENE) 1,066 4.3 -29.0°
Drops below altitude 10° 05:03:39 10° 160° (SSE) 2,700 6.5 -28.0°
Sets 05:06:09 0° 163° (SSE) 3,635 7.2 -27.6°
